Weather History for KWRI - October, 2012

Change the Weather History Date:

Wednesday, October 3, 2012

  Actual Average Record
Temperature  
Mean Temperature 74 °F -  
Max Temperature 82 °F 68 °F 87 °F (2001)
Min Temperature 66 °F 47 °F 35 °F (2003)
Cooling Degree Days 8    
Growing Degree Days 24 (Base 50)    
Moisture  
Dew Point 69 °F    
Average Humidity 93    
Maximum Humidity 100    
Minimum Humidity 70    
Precipitation  
Precipitation 0.00 in - - ()
Sea Level Pressure  
Sea Level Pressure 30.02 in    
Wind  
Wind Speed 3 mph (North)    
Max Wind Speed 7 mph    
Max Gust Speed -    
Visibility 4 miles    
Events Fog , Rain    
Averages and records for this station are not official NWS values.
T = Trace of Precipitation, MM = Missing Value Source: NWS Daily Summary

Daily Weather History Graph

Daily Weather History Graph

Search for Another Location

Airport or City:

Trip Planner

Search our weather history database for the weather conditions in past years. The results will help you decide how hot, cold, wet, or windy it might be!

Date:

Astronomy

Oct. 03, 2012 Rise Set
Actual Time 6:57 AM EDT 6:36 PM EDT
Civil Twilight 6:30 AM EDT 7:03 PM EDT
Nautical Twilight 5:58 AM EDT 7:35 PM EDT
Astronomical Twilight 5:27 AM EDT 8:06 PM EDT
Moon 8:27 PM EDT (10/3) 10:17 AM EDT (10/3)
Length of Visible Light 12h 33m
Length of Day
11h 39m
Waning Gibbous, 89% of the Moon is Illuminated
Oct 3
Waning Gibbous
Oct 8
Last Quarter
Oct 15
New
Oct 21
First Quarter
Oct 29
Full

Hourly Weather History & Observations

Time (EDT) Temp. Heat Index Dew Point Humidity Pressure Visibility Wind Dir Wind Speed Gust Speed Precip Events Conditions
12:08 AM 68.0 °F - 68.0 °F 100% 29.96 in 0.5 mi NNE 4.6 mph - N/A Fog Fog
12:16 AM 68.0 °F - 68.0 °F 100% 29.96 in 0.5 mi North 3.5 mph - N/A Fog Fog
12:27 AM 68.0 °F - 66.2 °F 94% 29.96 in 0.5 mi North 4.6 mph - N/A Fog Fog
12:55 AM 67.6 °F - 66.6 °F 96% 29.96 in 0.5 mi North 4.6 mph - N/A Fog Fog
12:58 AM 68.0 °F - 66.2 °F 94% 29.96 in 0.5 mi NNE 3.5 mph - N/A Fog Fog
1:12 AM 68.0 °F - 66.2 °F 94% 29.96 in 0.5 mi NNE 3.5 mph - N/A Fog Fog
1:24 AM 68.0 °F - 66.2 °F 94% 29.96 in 0.2 mi North 4.6 mph - N/A Fog Fog
1:30 AM 68.0 °F - 66.2 °F 94% 29.96 in 0.5 mi North 4.6 mph - N/A Fog Fog
1:46 AM 68.0 °F - 66.2 °F 94% 29.96 in 0.2 mi NNW 3.5 mph - N/A Fog Fog
1:55 AM 67.3 °F - 65.3 °F 93% 29.96 in 0.2 mi NNW 5.8 mph - N/A Fog Fog
2:42 AM 66.2 °F - 64.4 °F 94% 29.96 in 0.5 mi North 3.5 mph - N/A Fog Fog
2:51 AM 66.2 °F - 64.4 °F 94% 29.96 in 0.2 mi North 3.5 mph - N/A Fog Fog
2:55 AM 66.7 °F - 64.6 °F 93% 29.96 in 0.2 mi North 3.5 mph - N/A Fog Fog
3:02 AM 66.2 °F - 64.4 °F 94% 29.96 in 0.2 mi NE 3.5 mph - N/A Fog Fog
3:03 AM 66.2 °F - 64.4 °F 94% 29.96 in 0.5 mi NE 3.5 mph - N/A Fog Fog
3:15 AM 66.2 °F - 64.4 °F 94% 29.96 in 0.5 mi ENE 4.6 mph - N/A Fog Fog
3:28 AM 66.2 °F - 64.4 °F 94% 29.97 in 0.5 mi Calm Calm - N/A Fog Fog
3:40 AM 66.2 °F - 64.4 °F 94% 29.98 in 0.5 mi NW 5.8 mph - N/A Fog Fog
3:48 AM 66.2 °F - 64.4 °F 94% 29.97 in 0.8 mi NNW 3.5 mph - N/A   Mist
3:50 AM 66.2 °F - 64.4 °F 94% 29.97 in 0.8 mi North 3.5 mph - N/A   Mist
3:52 AM 66.2 °F - 64.4 °F 94% 29.97 in 1.0 mi North 3.5 mph - N/A   Mist
3:55 AM 66.6 °F - 64.4 °F 93% 29.97 in 1.0 mi North 4.6 mph - N/A   Mist
4:03 AM 66.2 °F - 64.4 °F 94% 29.97 in 1.0 mi NNW 4.6 mph - N/A   Mist
4:06 AM 66.2 °F - 64.4 °F 94% 29.97 in 0.8 mi NNW 5.8 mph - N/A   Mist
4:11 AM 66.2 °F - 64.4 °F 94% 29.98 in 0.8 mi North 5.8 mph - N/A   Mist
4:13 AM 66.2 °F - 64.4 °F 94% 29.98 in 1.0 mi North 5.8 mph - N/A   Mist
4:15 AM 66.2 °F - 64.4 °F 94% 29.98 in 1.2 mi North 5.8 mph - N/A   Overcast
4:17 AM 66.2 °F - 64.4 °F 94% 29.98 in 1.5 mi North 4.6 mph - N/A   Overcast
4:18 AM 66.2 °F - 64.4 °F 94% 29.98 in 1.8 mi North 4.6 mph - N/A   Overcast
4:19 AM 66.2 °F - 64.4 °F 94% 29.98 in 2.0 mi North 4.6 mph - N/A   Overcast
4:22 AM 66.2 °F - 64.4 °F 94% 29.98 in 3.0 mi NNE 3.5 mph - N/A   Overcast
4:36 AM 66.2 °F - 64.4 °F 94% 29.98 in 4.0 mi NNE 3.5 mph - N/A   Overcast
4:55 AM 66.2 °F - 64.8 °F 95% 29.98 in 5.0 mi Calm Calm - N/A   Overcast
5:17 AM 66.2 °F - 64.4 °F 94% 29.99 in 5.0 mi Calm Calm - N/A   Overcast
5:20 AM 66.2 °F - 64.4 °F 94% 29.99 in 5.0 mi Calm Calm - N/A   Overcast
5:27 AM 66.2 °F - 64.4 °F 94% 29.99 in 5.0 mi Calm Calm - N/A   Overcast
5:41 AM 66.2 °F - 64.4 °F 94% 29.99 in 3.0 mi Calm Calm - N/A   Overcast
5:44 AM 66.2 °F - 64.4 °F 94% 29.99 in 2.5 mi Calm Calm - N/A   Overcast
5:48 AM 66.2 °F - 64.4 °F 94% 29.99 in 2.0 mi Calm Calm - N/A   Overcast
5:49 AM 66.2 °F - 64.4 °F 94% 29.99 in 1.8 mi Calm Calm - N/A   Overcast
5:51 AM 66.2 °F - 64.4 °F 94% 29.99 in 1.5 mi Calm Calm - N/A   Overcast
5:54 AM 66.2 °F - 64.4 °F 94% 29.99 in 1.2 mi Calm Calm - N/A   Overcast
5:55 AM 66.2 °F - 64.9 °F 96% 29.99 in 1.2 mi Calm Calm - N/A   Overcast
5:57 AM 66.2 °F - 64.4 °F 94% 29.99 in 1.0 mi Calm Calm - N/A   Mist
6:00 AM 66.2 °F - 64.4 °F 94% 29.99 in 1.0 mi Calm Calm - N/A   Mist
6:05 AM 66.2 °F - 64.4 °F 94% 30.00 in 0.8 mi Calm Calm - N/A   Mist
6:08 AM 66.2 °F - 64.4 °F 94% 30.00 in 1.0 mi Calm Calm - N/A   Mist
6:17 AM 66.2 °F - 64.4 °F 94% 30.00 in 0.8 mi Calm Calm - N/A   Mist
6:21 AM 66.2 °F - 64.4 °F 94% 30.01 in 0.8 mi Calm Calm - N/A   Mist
6:23 AM 66.2 °F - 64.4 °F 94% 30.01 in 0.8 mi Calm Calm - N/A   Mist
6:30 AM 66.2 °F - 64.4 °F 94% 30.01 in 1.0 mi Calm Calm - N/A   Mist
6:32 AM 66.2 °F - 64.4 °F 94% 30.01 in 0.8 mi Calm Calm - N/A   Mist
6:39 AM 66.2 °F - 64.4 °F 94% 30.01 in 0.8 mi Calm Calm - N/A   Mist
6:41 AM 66.2 °F - 64.4 °F 94% 30.01 in 0.5 mi Calm Calm - N/A Fog Fog
6:53 AM 66.2 °F - 64.4 °F 94% 30.01 in 0.2 mi Calm Calm - N/A Fog Fog
6:55 AM 66.6 °F - 65.1 °F 95% 30.01 in 0.2 mi Calm Calm - N/A Fog Fog
7:10 AM 66.2 °F - 64.4 °F 94% 30.01 in 0.2 mi North 3.5 mph - N/A Fog Fog
7:11 AM 66.2 °F - 64.4 °F 94% 30.01 in 0.2 mi North 3.5 mph - N/A Fog Fog
7:55 AM 66.7 °F - 64.9 °F 94% 30.02 in 0.2 mi NE 4.6 mph - N/A Fog Fog
8:41 AM 68.0 °F - 66.2 °F 94% 30.03 in 0.2 mi Calm Calm - N/A Fog Fog
8:53 AM 68.0 °F - 66.2 °F 94% 30.04 in 0.2 mi Calm Calm - N/A Fog Fog
8:55 AM 68.0 °F - 66.4 °F 95% 30.04 in 0.2 mi Calm Calm - N/A Fog Fog
8:59 AM 68.0 °F - 66.2 °F 94% 30.04 in 0.2 mi Calm Calm - N/A Fog Fog
9:00 AM 68.0 °F - 66.2 °F 94% 30.04 in 0.2 mi Calm Calm - N/A Fog Fog
9:03 AM 68.0 °F - 66.2 °F 94% 30.04 in 0.5 mi Calm Calm - N/A Fog Fog
9:34 AM 68.0 °F - 66.2 °F 94% 30.04 in 0.5 mi Calm Calm - N/A Fog Fog
9:37 AM 68.0 °F - 66.2 °F 94% 30.04 in 0.2 mi NE 3.5 mph - N/A Fog Fog
9:41 AM 68.0 °F - 68.0 °F 100% 30.04 in 0.2 mi NE 3.5 mph - N/A Fog Fog
9:44 AM 68.0 °F - 68.0 °F 100% 30.04 in 0.2 mi Calm Calm - N/A Fog Fog
9:55 AM 69.1 °F - 67.1 °F 93% 30.04 in 0.2 mi ENE 3.5 mph - N/A Fog Fog
9:56 AM 69.8 °F - 66.2 °F 88% 30.04 in 0.2 mi Calm Calm - N/A Fog Fog
10:00 AM 69.8 °F - 66.2 °F 88% 30.04 in 0.2 mi ENE 3.5 mph - N/A Fog Fog
10:10 AM 69.8 °F - 66.2 °F 88% 30.04 in 0.2 mi East 3.5 mph - N/A Fog Fog
10:21 AM 69.8 °F - 68.0 °F 94% 30.04 in 0.2 mi Calm Calm - N/A Fog , Rain Light Rain
10:22 AM 69.8 °F - 68.0 °F 94% 30.04 in 0.2 mi Variable 3.5 mph - N/A Fog , Rain Light Rain
10:23 AM 69.8 °F - 68.0 °F 94% 30.04 in 0.5 mi Variable 3.5 mph - N/A Fog , Rain Light Rain
10:24 AM 69.8 °F - 68.0 °F 94% 30.04 in 0.5 mi Variable 4.6 mph - N/A Fog , Rain Light Rain
10:30 AM 71.6 °F - 69.8 °F 94% 30.04 in 0.8 mi ESE 3.5 mph - N/A Rain Light Rain
10:31 AM 71.6 °F - 69.8 °F 94% 30.04 in 0.8 mi Calm Calm - N/A   Mist
10:34 AM 71.6 °F - 69.8 °F 94% 30.04 in 0.5 mi East 3.5 mph - N/A Fog Fog
10:35 AM 71.6 °F - 69.8 °F 94% 30.04 in 0.5 mi East 3.5 mph - N/A Fog Fog
10:36 AM 71.6 °F - 69.8 °F 94% 30.04 in 0.5 mi ESE 3.5 mph - N/A Fog Fog
10:42 AM 71.6 °F - 69.8 °F 94% 30.04 in 0.5 mi Variable 3.5 mph - N/A Fog Fog
10:43 AM 71.6 °F - 69.8 °F 94% 30.04 in 0.5 mi ENE 3.5 mph - N/A Fog Fog
10:44 AM 71.6 °F - 69.8 °F 94% 30.04 in 0.8 mi Calm Calm - N/A   Mist
10:53 AM 71.6 °F - 69.8 °F 94% 30.04 in 0.8 mi Calm Calm - N/A   Mist
10:55 AM 72.0 °F - 70.7 °F 96% 30.04 in 0.8 mi East 3.5 mph - 0.00 in   Mist
10:59 AM 71.6 °F - 71.6 °F 100% 30.04 in 1.0 mi Calm Calm - N/A   Mist
11:02 AM 71.6 °F - 71.6 °F 100% 30.04 in 1.2 mi Calm Calm - N/A   Overcast
11:03 AM 71.6 °F - 71.6 °F 100% 30.04 in 1.5 mi Calm Calm - N/A   Overcast
11:05 AM 73.4 °F - 71.6 °F 94% 30.04 in 1.8 mi Calm Calm - N/A   Overcast
11:07 AM 73.4 °F - 71.6 °F 94% 30.04 in 2.0 mi Calm Calm - N/A   Overcast
11:17 AM 73.4 °F - 71.6 °F 94% 30.05 in 3.0 mi Calm Calm - N/A   Overcast
11:50 AM 73.4 °F - 73.4 °F 100% 30.05 in 8.0 mi Calm Calm - N/A   Overcast
11:55 AM 73.9 °F - 73.4 °F 98% 30.05 in 9.0 mi SSW 3.5 mph - N/A   Overcast
12:01 PM 73.4 °F - 73.4 °F 100% 30.04 in 8.0 mi Calm Calm - N/A Rain Light Rain
12:04 PM 75.2 °F - 73.4 °F 94% 30.04 in 9.0 mi Calm Calm - N/A Rain Light Rain
12:11 PM 75.2 °F - 75.2 °F 100% 30.04 in 10.0 mi Calm Calm - N/A   Overcast
12:13 PM 75.2 °F - 75.2 °F 100% 30.04 in 10.0 mi Calm Calm - N/A   Mostly Cloudy
12:19 PM 77.0 °F - 75.2 °F 94% 30.04 in 10.0 mi Calm Calm - N/A Rain Light Rain
12:24 PM 77.0 °F - 77.0 °F 100% 30.04 in 10.0 mi West 3.5 mph - N/A   Mostly Cloudy
12:26 PM 77.0 °F - 77.0 °F 100% 30.04 in 10.0 mi Calm Calm - N/A   Mostly Cloudy
12:54 PM 77.0 °F - 75.2 °F 94% 30.04 in 10.0 mi West 4.6 mph - N/A   Mostly Cloudy
12:55 PM 77.7 °F - 74.8 °F 91% 30.04 in 10.0 mi West 4.6 mph - 0.00 in   Mostly Cloudy
12:58 PM 78.8 °F - 75.2 °F 89% 30.04 in 10.0 mi West 6.9 mph - N/A   Mostly Cloudy
1:09 PM 78.8 °F - 75.2 °F 89% 30.03 in 10.0 mi Variable 4.6 mph - N/A   Scattered Clouds
1:10 PM 78.8 °F - 75.2 °F 89% 30.03 in 10.0 mi NW 4.6 mph - N/A   Mostly Cloudy
1:12 PM 78.8 °F - 75.2 °F 89% 30.03 in 10.0 mi NW 4.6 mph - N/A   Mostly Cloudy
1:15 PM 78.8 °F - 75.2 °F 89% 30.03 in 10.0 mi NW 3.5 mph - N/A   Mostly Cloudy
1:23 PM 77.0 °F - 75.2 °F 94% 30.03 in 10.0 mi NNW 3.5 mph - N/A   Mostly Cloudy
1:26 PM 78.8 °F - 75.2 °F 89% 30.03 in 10.0 mi Calm Calm - N/A   Mostly Cloudy
1:44 PM 77.0 °F - 75.2 °F 94% 30.03 in 10.0 mi East 3.5 mph - N/A   Overcast
1:49 PM 77.0 °F - 75.2 °F 94% 30.03 in 10.0 mi Calm Calm - N/A Rain Light Rain
1:55 PM 76.6 °F - 74.7 °F 94% 30.03 in 10.0 mi Calm Calm - 0.00 in Rain Light Rain
1:56 PM 77.0 °F - 75.2 °F 94% 30.03 in 10.0 mi Calm Calm - N/A Rain Light Rain
2:00 PM 77.0 °F - 75.2 °F 94% 30.03 in 10.0 mi East 3.5 mph - N/A Rain Light Rain
2:03 PM 77.0 °F - 75.2 °F 94% 30.02 in 10.0 mi East 3.5 mph - N/A Rain Light Rain
2:13 PM 77.0 °F - 75.2 °F 94% 30.02 in 10.0 mi NE 3.5 mph - N/A   Mostly Cloudy
2:16 PM 77.0 °F - 75.2 °F 94% 30.02 in 10.0 mi Calm Calm - N/A   Mostly Cloudy
2:21 PM 78.8 °F - 75.2 °F 89% 30.02 in 10.0 mi North 3.5 mph - N/A   Mostly Cloudy
2:23 PM 78.8 °F - 75.2 °F 89% 30.02 in 10.0 mi Variable 3.5 mph - N/A   Mostly Cloudy
2:25 PM 78.8 °F - 75.2 °F 89% 30.02 in 10.0 mi North 4.6 mph - N/A   Mostly Cloudy
2:28 PM 78.8 °F - 75.2 °F 89% 30.02 in 10.0 mi NNW 3.5 mph - N/A   Mostly Cloudy
2:39 PM 78.8 °F - 75.2 °F 89% 30.03 in 10.0 mi North 4.6 mph - N/A   Mostly Cloudy
2:40 PM 78.8 °F - 75.2 °F 89% 30.03 in 10.0 mi North 4.6 mph - N/A   Mostly Cloudy
2:45 PM 78.8 °F - 75.2 °F 89% 30.03 in 10.0 mi North 4.6 mph - N/A   Mostly Cloudy
2:55 PM 78.8 °F - 73.8 °F 84% 30.03 in 10.0 mi NNE 4.6 mph - 0.00 in   Mostly Cloudy
3:05 PM 80.6 °F 86.2 °F 75.2 °F 84% 30.02 in 10.0 mi North 5.8 mph - N/A   Scattered Clouds
3:17 PM 78.8 °F - 75.2 °F 89% 30.02 in 10.0 mi North 5.8 mph - N/A   Mostly Cloudy
3:24 PM 78.8 °F - 73.4 °F 83% 30.02 in 10.0 mi NE 4.6 mph - N/A   Mostly Cloudy
3:28 PM 78.8 °F - 73.4 °F 83% 30.02 in 10.0 mi North 5.8 mph - N/A   Mostly Cloudy
3:37 PM 78.8 °F - 73.4 °F 83% 30.02 in 10.0 mi Calm Calm - N/A   Mostly Cloudy
3:48 PM 80.6 °F 85.4 °F 73.4 °F 79% 30.02 in 10.0 mi Calm Calm - N/A   Scattered Clouds
3:55 PM 81.9 °F 87.5 °F 73.6 °F 76% 30.02 in 10.0 mi WNW 4.6 mph - N/A   Scattered Clouds
4:55 PM 81.3 °F 85.2 °F 70.5 °F 70% 30.03 in 10.0 mi West 6.9 mph - N/A   Partly Cloudy
5:55 PM 77.9 °F - 70.2 °F 77% 30.04 in 10.0 mi SSW 4.6 mph - N/A   Clear
6:41 PM 75.2 °F - 69.8 °F 83% 30.05 in 10.0 mi Calm Calm - N/A Rain Light Rain
6:55 PM 75.2 °F - 71.2 °F 87% 30.05 in 10.0 mi Calm Calm - 0.00 in Rain Light Rain
7:09 PM 75.2 °F - 71.6 °F 89% 30.06 in 10.0 mi Calm Calm - N/A   Clear
7:55 PM 72.3 °F - 70.0 °F 92% 30.07 in 10.0 mi SSW 3.5 mph - 0.00 in   Clear
8:55 PM 72.9 °F - 70.0 °F 91% 30.09 in 10.0 mi West 5.8 mph - N/A   Clear
9:13 PM 73.4 °F - 71.6 °F 94% 30.09 in 9.0 mi WNW 4.6 mph - N/A   Clear
9:55 PM 72.5 °F - 71.6 °F 97% 30.10 in 8.0 mi WNW 4.6 mph - N/A   Clear
10:45 PM 71.6 °F - 71.6 °F 100% 30.11 in 9.0 mi Calm Calm - N/A   Clear
10:55 PM 71.4 °F - 70.5 °F 97% 30.11 in 10.0 mi WNW 4.6 mph - N/A   Scattered Clouds
11:55 PM 70.7 °F - 68.2 °F 92% 30.11 in 10.0 mi Calm Calm - N/A   Clear